QPF
0.00 0.01 0.02 0.01 0.01 0.00 0.00 0.01 0.01 0.01 0.00 0.00 0.00 0.00 0.00 0.00 0.00 0.00 0.00 0.00 0.00 0.00 0.00 0.00 0.00 0.00 0.00 0.00 0.00 0.00 0.00 0.00 0.00 0.02 0.10 0.14 0.04 0.03 0.05 0.06 0.04 0.01 0.00 0.00
0.00 0.01 0.00 0.00 0.00 0.00 0.00 0.01 0.02 0.01 0.00 0.00 0.00 0.00 0.00 0.00 0.00 0.00 0.00 0.00 0.00 0.00 0.00 0.00 0.00 0.00 0.00 0.00 0.00 0.00 0.00 0.00 0.00 0.00 0.07 0.12 0.07 0.05 0.02 0.02 0.01 0.00 0.00 0.00
0.00 0.00 0.00 0.00 0.01 0.00 0.00 0.00 0.00 0.00 0.01 0.00 0.00 0.00 0.00 0.00 0.00 0.00 0.00 0.00 0.00 0.00 0.00 0.00 0.00 0.00 0.00 0.00 0.00 0.00 0.00 0.00 0.00 0.00 0.04 0.07 0.05 0.04 0.03 0.01 0.00 0.00 0.00 0.00
0.00 0.00 0.00 0.00 0.00 0.00 0.00 0.00 0.00 0.00 0.00 0.00 0.00 0.00 0.00 0.00 0.00 0.00 0.00 0.00 0.00 0.00 0.00 0.00 0.00 0.00 0.00 0.00 0.00 0.00 0.00 0.00 0.00 0.01 0.05 0.07 0.04 0.01 0.01 0.00 0.00 0.00 0.00 0.00
0.00 0.00 0.00 0.00 0.00 0.00 0.00 0.00 0.00 0.00 0.00 0.00 0.00 0.00 0.00 0.00 0.00 0.00 0.00 0.00 0.00 0.00 0.00 0.00 0.00 0.00 0.00 0.00 0.00 0.00 0.00 0.00 0.00 0.01 0.03 0.05 0.03 0.01 0.00 0.00 0.00 0.00 0.00 0.00
0.00 0.01 0.01 0.00 0.00 0.00 0.00 0.00 0.00 0.00 0.00 0.00 0.00 0.00 0.00 0.00 0.00 0.00 0.00 0.00 0.00 0.00 0.00 0.00 0.00 0.00 0.00 0.00 0.00 0.00 0.00 0.00 0.00 0.00 0.00 0.00 0.00 0.00 0.00 0.00 0.00 0.00 0.00 0.00
0.00 0.01 0.00 0.00 0.00 0.00 0.00 0.00 0.00 0.00 0.00 0.00 0.00 0.00 0.00 0.00 0.00 0.00 0.00 0.00 0.00 0.00 0.00 0.00 0.00 0.00 0.00 0.00 0.00 0.00 0.00 0.00 0.00 0.00 0.00 0.00 0.00 0.00 0.00 0.00 0.00 0.00 0.00 0.00
0.00 0.00 0.00 0.00 0.00 0.00 0.00 0.00 0.01 0.00 0.00 0.00 0.00 0.00 0.00 0.00 0.00 0.00 0.00 0.00 0.00 0.00 0.00 0.00 0.00 0.00 0.00 0.00 0.00 0.00 0.00 0.00 0.00 0.00 0.00 0.00 0.00 0.00 0.00 0.00 0.00 0.00 0.00 0.00
0.00 0.00 0.00 0.00 0.00 0.00 0.00 0.00 0.00 0.00 0.00 0.00 0.00 0.00 0.00 0.00 0.00 0.00 0.00 0.00 0.00 0.00 0.00 0.00 0.00 0.00 0.00 0.00 0.00 0.00 0.00 0.00 0.00 0.00 0.00 0.00 0.00 0.00 0.00 0.00 0.00 0.00 0.00 0.00
0.00 0.00 0.00 0.00 0.00 0.00 0.00 0.00 0.00 0.00 0.00 0.00 0.00 0.00 0.00 0.00 0.00 0.00 0.00 0.00 0.00 0.00 0.00 0.00 0.00 0.00 0.00 0.00 0.00 0.00 0.00 0.00 0.00 0.00 0.00 0.00 0.00 0.00 0.00 0.00 0.00 0.00 0.00 0.00
0.00 0.00 0.00 0.00 0.00 0.00 0.00 0.00 0.00 0.00 0.00 0.00 0.00 0.00 0.00 0.00 0.00 0.00 0.00 0.00 0.00 0.00 0.00 0.00 0.00 0.00 0.00 0.00 0.00 0.00 0.00 0.00 0.00 0.00 0.00 0.00 0.00 0.00 0.00 0.00 0.00 0.00 0.00 0.00
0.00 0.00 0.00 0.00 0.00 0.00 0.00 0.00 0.00 0.00 0.00 0.00 0.00 0.00 0.00 0.00 0.00 0.00 0.00 0.00 0.00 0.00 0.00 0.00 0.00 0.00 0.00 0.00 0.00 0.00 0.00 0.00 0.00 0.00 0.00 0.00 0.00 0.00 0.00 0.00 0.00 0.00 0.00 0.00
0.00 0.00 0.00 0.00 0.00 0.00 0.00 0.00 0.00 0.00 0.00 0.00 0.00 0.00 0.00 0.00 0.00 0.00 0.00 0.00 0.00 0.00 0.00 0.00 0.00 0.00 0.00 0.00 0.00 0.00 0.00 0.00 0.00 0.00 0.00 0.00 0.00 0.00 0.00 0.00 0.00 0.00 0.00 0.00
0.00 0.00 0.00 0.00 0.00 0.00 0.00 0.00 0.00 0.00 0.00 0.00 0.00 0.00 0.00 0.00 0.00 0.00 0.00 0.00 0.00 0.00 0.00 0.00 0.00 0.00 0.00 0.00 0.00 0.00 0.00 0.00 0.00 0.00 0.00 0.00 0.00 0.00 0.00 0.00 0.00 0.00 0.00 0.00
0.00 0.00 0.00 0.00 0.00 0.00 0.00 0.00 0.00 0.00 0.00 0.00 0.00 0.00 0.00 0.00 0.00 0.00 0.00 0.00 0.00 0.00 0.00 0.00 0.00 0.00 0.00 0.00 0.00 0.00 0.00 0.00 0.00 0.00 0.00 0.00 0.00 0.00 0.00 0.00 0.00 0.00 0.00 0.00
0.00 0.00 0.00 0.00 0.00 0.00 0.00 0.00 0.00 0.00 0.00 0.00 0.00 0.00 0.00 0.00 0.00 0.00 0.00 0.00 0.00 0.00 0.00 0.00 0.00 0.00 0.00 0.00 0.00 0.00 0.00 0.00 0.00 0.00 0.00 0.00 0.00 0.00 0.00 0.00 0.00 0.00 0.00 0.00
0.00 0.00 0.00 0.00 0.00 0.00 0.00 0.00 0.00 0.00 0.00 0.00 0.00 0.00 0.00 0.00 0.00 0.00 0.00 0.00 0.00 0.00 0.00 0.00 0.00 0.00 0.00 0.00 0.00 0.00 0.00 0.00 0.00 0.00 0.00 0.00 0.00 0.00 0.00 0.00 0.00 0.00 0.00 0.00
0.00 0.00 0.00 0.00 0.00 0.00 0.00 0.00 0.00 0.00 0.00 0.00 0.00 0.00 0.00 0.00 0.00 0.00 0.00 0.00 0.00 0.00 0.00 0.00 0.00 0.00 0.00 0.00 0.00 0.00 0.00 0.00 0.00 0.00 0.00 0.00 0.00 0.00 0.00 0.00 0.00 0.00 0.00 0.00
0.00 0.00 0.00 0.00 0.00 0.00 0.00 0.00 0.00 0.00 0.00 0.00 0.00 0.00 0.00 0.00 0.00 0.00 0.00 0.00 0.00 0.00 0.00 0.00 0.00 0.00 0.00 0.00 0.00 0.00 0.00 0.00 0.00 0.00 0.00 0.00 0.00 0.00 0.00 0.00 0.00 0.00 0.00 0.00
0.00 0.00 0.00 0.00 0.00 0.00 0.00 0.00 0.00 0.00 0.00 0.00 0.00 0.00 0.00 0.00 0.00 0.00 0.00 0.00 0.00 0.00 0.00 0.00 0.00 0.00 0.00 0.00 0.00 0.00 0.00 0.00 0.00 0.00 0.00 0.00 0.00 0.00 0.00 0.00 0.00 0.00 0.00 0.00
0.00 0.00 0.00 0.00 0.00 0.00 0.00 0.00 0.00 0.00 0.00 0.00 0.00 0.00 0.00 0.00 0.00 0.00 0.00 0.00 0.00 0.00 0.00 0.00 0.00 0.00 0.00 0.00 0.00 0.00 0.00 0.00 0.00 0.00 0.00 0.00 0.00 0.00 0.00 0.00 0.00 0.00 0.00 0.00
0.00 0.00 0.00 0.00 0.00 0.00 0.00 0.00 0.00 0.00 0.00 0.00 0.00 0.00 0.00 0.00 0.00 0.00 0.00 0.00 0.00 0.00 0.00 0.00 0.00 0.00 0.00 0.00 0.00 0.00 0.00 0.00 0.00 0.00 0.00 0.00 0.00 0.00 0.00 0.00 0.00 0.00 0.00 0.00
0.00 0.00 0.00 0.00 0.00 0.00 0.00 0.00 0.00 0.00 0.00 0.00 0.00 0.00 0.00 0.00 0.00 0.00 0.00 0.00 0.00 0.00 0.00 0.00 0.00 0.00 0.00 0.00 0.00 0.00 0.00 0.00 0.00 0.00 0.00 0.00 0.00 0.00 0.00 0.00 0.00 0.00 0.00 0.00
0.00 0.00 0.00 0.00 0.00 0.00 0.00 0.00 0.00 0.00 0.00 0.00 0.00 0.00 0.00 0.00 0.00 0.00 0.00 0.00 0.00 0.00 0.00 0.00 0.00 0.00 0.00 0.00 0.00 0.00 0.00 0.00 0.00 0.00 0.00 0.00 0.00 0.00 0.00 0.00 0.00 0.00 0.00 0.00
0.00 0.00 0.00 0.00 0.00 0.00 0.00 0.00 0.00 0.00 0.00 0.00 0.00 0.00 0.00 0.00 0.00 0.00 0.00 0.00 0.00 0.00 0.00 0.00 0.00 0.00 0.00 0.00 0.00 0.00 0.00 0.00 0.00 0.00 0.00 0.00 0.00 0.00 0.00 0.00 0.00 0.00 0.00 0.00
0.00 0.00 0.00 0.00 0.00 0.00 0.00 0.00 0.00 0.00 0.00 0.00 0.00 0.00 0.00 0.00 0.00 0.00 0.00 0.00 0.00 0.00 0.00 0.00 0.00 0.00 0.00 0.00 0.00 0.00 0.00 0.00 0.00 0.00 0.00 0.00 0.00 0.00 0.00 0.00 0.00 0.00 0.00 0.00
0.00 0.00 0.00 0.00 0.00 0.00 0.00 0.00 0.00 0.00 0.00 0.00 0.00 0.00 0.00 0.00 0.00 0.00 0.00 0.00 0.00 0.00 0.00 0.00 0.00 0.00 0.00 0.00 0.00 0.00 0.00 0.00 0.00 0.00 0.00 0.00 0.00 0.00 0.00 0.00 0.00 0.00 0.00 0.00
MSLP
1006.82 1006.46 1006.72 1007.08 1006.83 1007.20 1007.68 1007.44 1009.34 1011.39 1012.12 1013.81 1014.47 1015.07 1015.72 1016.44 1016.77 1016.43 1016.36 1016.61 1016.47 1015.87 1014.97 1013.88 1012.89 1011.95 1011.11 1010.07 1009.17 1008.23 1007.08 1005.74 1005.53 1004.40 1003.28 1002.92 1002.94 1003.41 1004.14 1004.80 1005.56 1006.34 1006.93 1007.60
1007.24 1007.24 1006.33 1007.70 1007.90 1008.05 1008.86 1009.79 1011.08 1012.12 1013.78 1015.44 1016.48 1017.18 1017.46 1017.85 1017.69 1017.95 1017.84 1017.55 1017.17 1016.70 1015.92 1015.15 1014.42 1013.59 1012.66 1011.29 1010.36 1009.53 1008.64 1007.82 1007.09 1006.01 1005.08 1004.26 1003.80 1003.99 1004.14 1004.86 1005.55 1006.34 1006.77 1007.83
1009.00 1008.13 1007.36 1009.02 1010.04 1010.45 1011.23 1012.01 1012.72 1013.38 1015.03 1016.36 1017.34 1018.19 1018.85 1019.13 1019.23 1019.01 1018.84 1018.63 1018.31 1017.77 1017.29 1016.71 1015.90 1015.02 1013.99 1013.03 1011.62 1011.18 1010.43 1009.67 1008.34 1007.51 1006.63 1006.52 1005.67 1005.23 1005.39 1005.80 1005.96 1006.71 1007.29 1008.27
1009.09 1008.73 1009.34 1012.28 1012.09 1012.47 1012.99 1014.12 1014.53 1015.24 1016.38 1017.41 1018.35 1019.32 1019.92 1020.33 1020.08 1019.89 1019.60 1019.25 1018.99 1018.56 1018.21 1017.76 1017.02 1016.00 1015.24 1014.27 1013.14 1012.38 1011.94 1011.19 1009.96 1009.00 1008.59 1008.51 1007.95 1007.49 1007.80 1007.88 1008.26 1008.57 1009.25 1009.36
1009.79 1010.18 1011.35 1012.02 1013.43 1014.18 1014.02 1015.91 1016.52 1016.80 1017.26 1017.88 1018.48 1018.65 1020.16 1020.84 1020.87 1020.69 1020.26 1019.69 1019.23 1018.99 1019.05 1018.55 1017.72 1017.01 1016.30 1015.41 1014.59 1013.45 1013.35 1012.92 1011.73 1010.60 1010.69 1010.46 1010.18 1010.15 1010.29 1009.63 1010.36 1010.81 1011.13 1010.87
1010.23 1011.56 1013.42 1015.12 1014.99 1014.87 1014.71 1016.98 1017.94 1017.94 1018.41 1018.42 1018.78 1019.77 1021.64 1021.89 1021.65 1021.14 1020.63 1019.82 1019.57 1019.57 1019.55 1019.01 1018.41 1017.90 1017.33 1016.71 1016.10 1015.21 1014.39 1014.57 1013.37 1012.22 1012.45 1012.58 1012.31 1011.44 1011.40 1012.75 1011.21 1012.86 1012.22 1012.81
1012.35 1013.76 1015.62 1016.74 1015.32 1013.99 1015.90 1019.63 1019.19 1019.20 1019.48 1019.84 1020.41 1021.67 1022.15 1022.01 1021.73 1021.26 1020.62 1020.07 1019.97 1020.23 1020.26 1019.99 1019.51 1018.77 1018.09 1017.86 1017.52 1017.23 1016.47 1015.42 1015.00 1014.32 1014.15 1014.44 1013.40 1012.55 1013.02 1013.92 1012.52 1013.90 1013.32 1014.08
1014.68 1015.75 1017.52 1017.76 1016.49 1017.46 1019.61 1019.98 1020.06 1020.10 1020.22 1020.50 1021.07 1021.61 1021.88 1021.86 1021.73 1021.42 1021.17 1020.81 1020.60 1020.73 1021.00 1020.93 1020.62 1019.88 1019.35 1018.82 1018.71 1018.30 1017.74 1017.31 1016.42 1015.81 1015.56 1015.16 1015.03 1015.45 1014.37 1014.57 1014.74 1014.62 1013.98 1014.60
1017.67 1018.97 1019.91 1020.14 1020.08 1020.45 1020.59 1020.73 1020.85 1020.72 1020.73 1020.83 1021.16 1021.52 1021.90 1022.12 1022.15 1022.07 1021.98 1021.82 1021.69 1021.84 1022.07 1022.03 1021.63 1021.19 1020.69 1020.18 1019.19 1018.73 1018.52 1018.21 1017.89 1017.67 1017.38 1017.54 1017.16 1016.53 1015.90 1016.04 1016.19 1015.96 1015.78 1015.78
1018.68 1020.16 1020.53 1020.89 1021.20 1021.20 1021.13 1021.10 1021.19 1021.31 1021.32 1021.10 1021.39 1021.89 1022.46 1022.79 1022.97 1023.05 1023.03 1023.01 1023.04 1023.14 1023.22 1023.12 1022.86 1022.39 1021.78 1021.01 1020.24 1019.55 1019.16 1019.22 1019.09 1018.95 1018.96 1018.99 1018.43 1017.96 1017.68 1017.26 1017.21 1017.47 1017.49 1017.10
1019.69 1020.58 1021.04 1021.49 1021.72 1021.77 1021.70 1021.67 1021.78 1021.89 1022.09 1022.14 1022.32 1022.84 1023.27 1023.79 1024.03 1024.14 1024.14 1024.18 1024.28 1024.36 1024.40 1024.36 1024.14 1023.64 1022.95 1022.12 1021.41 1020.65 1020.31 1020.04 1020.24 1020.24 1020.51 1020.27 1019.73 1019.69 1019.39 1018.88 1019.24 1018.87 1018.96 1018.12
1020.06 1020.56 1021.14 1021.98 1022.13 1022.19 1022.24 1022.38 1022.63 1022.82 1023.07 1023.26 1023.40 1023.79 1024.26 1024.76 1025.13 1025.23 1025.22 1025.29 1025.36 1025.46 1025.50 1025.48 1025.27 1024.80 1024.03 1023.08 1022.42 1021.85 1021.33 1021.04 1020.90 1020.81 1020.85 1020.95 1020.94 1020.81 1020.54 1020.40 1020.48 1019.87 1019.74 1019.52
1020.69 1021.15 1021.60 1022.31 1022.54 1022.47 1022.74 1022.86 1023.31 1023.84 1024.15 1024.31 1024.66 1024.96 1025.35 1025.86 1026.27 1026.57 1026.64 1026.59 1026.58 1026.60 1026.58 1026.43 1026.10 1025.68 1025.09 1024.27 1023.49 1022.79 1022.39 1022.15 1021.97 1021.84 1021.63 1021.49 1021.70 1021.81 1021.78 1021.86 1021.53 1021.13 1020.85 1020.71
1021.33 1021.65 1022.33 1022.72 1022.80 1022.86 1023.03 1023.40 1024.15 1024.90 1025.34 1025.55 1025.87 1026.12 1026.51 1026.94 1027.41 1027.73 1027.88 1027.79 1027.75 1027.72 1027.58 1027.30 1026.93 1026.47 1025.93 1025.18 1024.44 1023.92 1023.45 1023.01 1022.94 1022.74 1022.40 1022.22 1022.16 1022.30 1022.47 1022.67 1022.70 1022.49 1022.23 1022.15
1021.76 1022.09 1022.49 1022.95 1023.19 1023.38 1023.61 1024.30 1025.10 1026.13 1026.55 1026.88 1027.20 1027.52 1027.72 1028.12 1028.53 1028.81 1028.91 1028.79 1028.71 1028.61 1028.48 1028.17 1027.71 1027.29 1026.68 1026.01 1025.27 1024.43 1024.19 1024.00 1023.71 1023.38 1023.11 1022.97 1022.95 1023.11 1023.33 1023.56 1023.62 1023.61 1023.41 1023.18
1022.10 1022.43 1022.94 1023.56 1024.25 1024.73 1025.15 1025.88 1026.35 1027.44 1027.86 1028.34 1028.73 1028.97 1028.98 1029.23 1029.52 1029.71 1029.76 1029.76 1029.59 1029.64 1029.49 1029.15 1028.72 1028.19 1027.49 1026.79 1026.08 1025.26 1024.97 1024.77 1024.46 1024.19 1024.03 1023.79 1023.65 1023.76 1024.02 1024.18 1024.28 1024.40 1024.21 1024.12
1022.14 1022.80 1023.52 1024.48 1025.12 1025.92 1026.81 1027.41 1027.92 1028.63 1029.19 1029.67 1030.10 1030.37 1030.30 1030.28 1030.65 1030.81 1030.79 1030.65 1030.61 1030.55 1030.23 1029.94 1029.46 1028.63 1027.98 1027.38 1026.81 1026.11 1025.60 1025.38 1025.17 1025.08 1024.85 1024.85 1024.62 1024.54 1024.72 1024.98 1025.24 1025.31 1025.39 1025.13
1022.76 1023.22 1023.74 1024.85 1026.04 1027.07 1027.90 1028.52 1029.19 1029.85 1030.49 1031.05 1031.42 1031.74 1032.02 1032.01 1032.14 1032.06 1031.71 1031.45 1031.22 1031.10 1030.78 1030.29 1029.76 1029.25 1028.57 1027.88 1027.27 1026.62 1026.26 1025.99 1025.80 1025.71 1025.70 1025.64 1025.68 1025.42 1025.54 1025.77 1025.95 1026.03 1026.05 1026.02
1024.24 1024.90 1025.59 1026.34 1027.17 1028.02 1028.89 1029.70 1030.44 1031.03 1031.52 1031.91 1032.32 1032.80 1032.77 1032.71 1032.66 1032.53 1032.32 1032.08 1031.91 1032.00 1031.47 1030.87 1030.39 1029.87 1029.36 1028.61 1027.98 1027.44 1026.99 1026.75 1026.61 1026.48 1026.27 1026.27 1026.42 1026.26 1026.19 1026.38 1026.65 1026.84 1026.83 1027.00
1025.97 1026.70 1027.32 1027.94 1028.39 1029.12 1030.04 1030.73 1031.40 1032.05 1032.43 1032.60 1032.89 1033.27 1033.66 1033.12 1032.94 1032.77 1032.59 1032.68 1032.47 1032.23 1031.65 1031.39 1030.99 1030.61 1030.11 1029.40 1029.05 1028.44 1028.02 1027.67 1027.32 1027.00 1026.84 1026.82 1026.92 1026.99 1027.11 1027.10 1027.17 1027.54 1027.67 1027.77
1027.73 1028.27 1028.89 1029.47 1030.16 1030.75 1031.19 1031.67 1032.25 1033.05 1033.03 1033.16 1033.47 1033.94 1033.74 1033.14 1033.00 1032.98 1032.97 1033.01 1032.64 1032.17 1031.96 1031.84 1031.60 1031.33 1030.77 1030.34 1029.66 1029.21 1028.88 1028.66 1028.46 1028.30 1028.18 1027.96 1027.90 1028.05 1028.14 1028.09 1028.22 1028.18 1028.20 1028.35
1028.82 1029.46 1030.05 1030.51 1030.99 1031.66 1031.80 1032.17 1032.50 1032.85 1033.13 1033.29 1033.36 1033.32 1033.22 1032.94 1032.56 1032.89 1032.89 1032.80 1032.54 1032.39 1032.34 1032.20 1031.96 1031.96 1031.23 1030.87 1030.21 1030.03 1029.79 1029.58 1029.47 1029.35 1029.34 1029.25 1029.10 1029.07 1029.00 1028.90 1028.86 1028.84 1028.83 1028.81
1029.38 1029.96 1030.47 1030.91 1031.22 1031.61 1031.79 1032.08 1032.30 1032.51 1032.78 1032.97 1033.06 1032.99 1032.95 1032.62 1032.21 1032.49 1032.73 1032.64 1032.48 1032.40 1032.44 1032.51 1032.39 1032.16 1031.73 1031.04 1030.90 1030.75 1030.62 1030.48 1030.44 1030.29 1030.13 1029.98 1029.89 1029.80 1029.76 1029.73 1029.64 1029.51 1029.48 1029.45
1029.62 1030.13 1030.49 1030.51 1030.88 1031.29 1031.64 1031.65 1031.76 1031.87 1032.05 1032.18 1032.46 1032.30 1032.45 1032.20 1032.13 1032.13 1032.23 1032.32 1032.36 1032.32 1032.41 1032.41 1032.56 1032.10 1031.80 1031.64 1031.46 1031.29 1031.20 1031.05 1030.94 1030.83 1030.79 1030.67 1030.49 1030.33 1030.26 1030.27 1030.32 1030.32 1030.32 1030.18
1029.32 1029.70 1029.98 1030.49 1030.58 1030.69 1030.80 1030.80 1031.07 1031.16 1031.31 1031.35 1031.27 1031.50 1031.67 1031.55 1031.90 1031.94 1031.97 1032.08 1032.15 1032.16 1032.24 1031.83 1031.85 1031.91 1032.05 1031.95 1031.78 1031.58 1031.34 1031.18 1031.10 1031.07 1031.07 1031.07 1030.93 1030.79 1030.72 1030.83 1030.99 1030.95 1031.03 1030.68
1028.96 1029.31 1029.54 1029.65 1029.82 1029.63 1029.83 1030.30 1030.75 1030.51 1030.70 1030.70 1030.47 1030.84 1031.13 1031.30 1031.48 1031.64 1031.75 1031.83 1031.89 1031.96 1031.93 1032.01 1031.59 1031.66 1031.86 1032.15 1031.91 1031.63 1031.28 1031.21 1030.93 1031.03 1031.27 1031.30 1031.20 1030.95 1030.72 1030.92 1030.83 1030.64 1030.50 1030.62
1028.59 1028.71 1029.01 1029.17 1029.16 1029.32 1029.63 1029.98 1030.42 1030.85 1030.77 1030.82 1031.01 1030.84 1031.02 1031.16 1031.31 1031.47 1031.58 1031.68 1031.69 1031.67 1031.71 1031.61 1031.36 1031.11 1031.10 1031.38 1031.39 1031.21 1030.98 1030.83 1030.44 1030.58 1030.90 1030.94 1030.73 1030.52 1030.17 1030.30 1030.55 1030.50 1030.52 1030.56
Thickness
5500 5516 5508 5500 5509 5509 5516 5535 5516 5491 5487 5472 5468 5466 5465 5463 5461 5467 5470 5467 5468 5474 5484 5495 5504 5514 5521 5531 5540 5550 5562 5576 5580 5592 5610 5613 5615 5615 5611 5610 5608 5605 5603 5600
5492 5508 5523 5502 5516 5517 5513 5507 5501 5491 5475 5457 5450 5449 5450 5450 5455 5453 5454 5457 5461 5464 5471 5478 5484 5493 5502 5514 5524 5532 5541 5550 5558 5571 5582 5593 5604 5603 5605 5602 5599 5596 5596 5590
5478 5497 5520 5500 5493 5491 5485 5484 5483 5480 5471 5453 5444 5437 5434 5436 5437 5441 5444 5445 5446 5449 5453 5458 5465 5473 5483 5492 5505 5510 5518 5527 5542 5551 5561 5563 5575 5585 5586 5588 5587 5585 5582 5579
5487 5507 5502 5458 5478 5475 5464 5458 5467 5464 5450 5440 5431 5425 5423 5421 5426 5429 5432 5437 5437 5440 5442 5444 5451 5458 5466 5474 5484 5490 5497 5506 5520 5531 5537 5540 5547 5545 5553 5556 5557 5559 5556 5559
5484 5488 5485 5480 5462 5452 5469 5444 5443 5445 5444 5438 5435 5442 5423 5417 5417 5419 5423 5429 5433 5435 5432 5435 5442 5448 5453 5460 5467 5477 5477 5482 5496 5509 5511 5518 5521 5523 5525 5533 5530 5530 5531 5536
5492 5491 5472 5445 5442 5454 5465 5434 5428 5436 5430 5431 5440 5433 5410 5405 5407 5412 5416 5425 5426 5425 5424 5427 5433 5437 5441 5444 5450 5458 5466 5461 5476 5488 5489 5490 5497 5498 5508 5498 5514 5503 5512 5509
5471 5466 5446 5421 5443 5467 5463 5418 5418 5420 5417 5415 5411 5401 5398 5400 5402 5405 5412 5420 5420 5416 5414 5416 5420 5425 5431 5431 5433 5435 5441 5450 5455 5464 5467 5466 5477 5487 5486 5477 5494 5484 5492 5487
5449 5453 5435 5418 5441 5434 5413 5406 5408 5409 5410 5407 5402 5399 5399 5397 5400 5403 5404 5408 5410 5408 5404 5404 5407 5413 5416 5419 5419 5422 5426 5428 5437 5443 5446 5451 5454 5453 5461 5463 5464 5463 5475 5470
5420 5410 5398 5399 5401 5398 5398 5396 5396 5402 5405 5405 5402 5400 5398 5395 5394 5395 5394 5394 5396 5394 5391 5391 5394 5397 5400 5403 5412 5416 5417 5419 5420 5420 5423 5421 5426 5430 5438 5436 5437 5443 5446 5447
5412 5397 5395 5393 5391 5392 5396 5397 5397 5395 5395 5402 5399 5394 5387 5385 5383 5381 5380 5379 5379 5377 5377 5377 5379 5381 5385 5391 5397 5403 5407 5405 5405 5404 5403 5403 5408 5411 5413 5416 5416 5415 5416 5419
5401 5393 5391 5387 5385 5386 5387 5388 5388 5386 5384 5384 5384 5379 5374 5370 5369 5368 5367 5365 5363 5361 5361 5361 5362 5365 5369 5374 5379 5385 5389 5391 5389 5388 5382 5383 5388 5387 5389 5395 5391 5395 5394 5401
5395 5393 5387 5378 5379 5379 5378 5376 5375 5374 5373 5372 5371 5368 5363 5358 5355 5354 5353 5352 5350 5348 5346 5345 5346 5348 5353 5360 5364 5367 5370 5373 5375 5375 5374 5372 5371 5371 5372 5373 5370 5375 5377 5379
5382 5381 5377 5371 5371 5374 5369 5371 5366 5362 5360 5360 5356 5353 5350 5344 5341 5338 5336 5336 5334 5333 5332 5332 5333 5335 5338 5343 5347 5351 5353 5355 5355 5356 5357 5357 5353 5353 5353 5352 5354 5357 5358 5358
5375 5375 5369 5366 5366 5368 5368 5365 5356 5349 5346 5344 5342 5339 5335 5330 5325 5322 5319 5320 5319 5317 5317 5318 5320 5321 5324 5328 5332 5333 5335 5337 5337 5338 5341 5343 5342 5339 5336 5333 5333 5335 5339 5339
5369 5367 5364 5361 5361 5360 5359 5352 5343 5333 5331 5328 5325 5323 5320 5315 5310 5307 5305 5304 5303 5303 5301 5301 5303 5304 5307 5311 5315 5320 5319 5319 5320 5321 5322 5322 5322 5321 5319 5316 5315 5314 5316 5319
5366 5364 5359 5352 5346 5343 5340 5333 5329 5319 5315 5311 5307 5305 5305 5301 5297 5293 5291 5288 5287 5284 5282 5280 5283 5284 5287 5289 5293 5299 5300 5299 5300 5300 5301 5302 5304 5302 5299 5298 5297 5296 5297 5297
5362 5358 5351 5341 5336 5330 5321 5316 5313 5307 5302 5298 5293 5289 5289 5288 5281 5276 5273 5271 5266 5263 5262 5261 5261 5264 5267 5269 5269 5271 5275 5275 5276 5277 5277 5276 5278 5279 5274 5274 5272 5271 5271 5273
5355 5352 5350 5339 5327 5318 5311 5305 5299 5293 5287 5282 5277 5269 5263 5259 5257 5253 5250 5249 5246 5242 5241 5239 5240 5241 5243 5244 5244 5246 5248 5246 5248 5250 5249 5250 5250 5251 5249 5247 5245 5246 5246 5246
5341 5336 5331 5325 5316 5308 5300 5292 5285 5280 5273 5267 5261 5253 5248 5243 5241 5235 5233 5227 5222 5218 5217 5215 5216 5214 5215 5216 5216 5218 5219 5218 5216 5218 5219 5218 5219 5222 5224 5222 5219 5217 5216 5217
5326 5319 5312 5308 5305 5299 5290 5282 5275 5266 5260 5255 5247 5241 5233 5228 5224 5218 5213 5208 5202 5199 5193 5190 5189 5185 5185 5186 5186 5188 5187 5187 5188 5189 5190 5191 5192 5192 5193 5193 5193 5190 5188 5187
5305 5301 5295 5290 5282 5277 5271 5264 5258 5250 5245 5239 5233 5227 5221 5217 5211 5202 5197 5192 5181 5178 5171 5165 5160 5157 5156 5156 5158 5157 5157 5156 5156 5155 5155 5156 5156 5157 5157 5158 5160 5161 5162 5163
5293 5287 5281 5277 5274 5266 5261 5256 5250 5242 5236 5230 5224 5216 5209 5208 5200 5187 5174 5166 5159 5153 5145 5139 5135 5132 5131 5131 5131 5130 5129 5128 5126 5125 5124 5124 5125 5126 5125 5127 5129 5131 5134 5135
5288 5284 5279 5272 5267 5262 5255 5249 5243 5236 5227 5220 5213 5206 5199 5195 5187 5169 5157 5145 5138 5131 5125 5119 5116 5114 5113 5111 5110 5109 5107 5106 5104 5102 5100 5099 5099 5099 5099 5098 5100 5101 5103 5105
5284 5280 5273 5269 5264 5259 5250 5243 5238 5234 5222 5215 5206 5196 5187 5177 5166 5159 5144 5132 5124 5117 5111 5107 5104 5102 5100 5098 5095 5093 5092 5088 5086 5085 5085 5084 5082 5083 5082 5080 5081 5081 5081 5082
5283 5277 5271 5263 5259 5254 5250 5243 5235 5229 5221 5215 5206 5193 5181 5170 5153 5141 5130 5122 5115 5110 5103 5099 5095 5093 5090 5088 5085 5082 5081 5079 5076 5073 5071 5068 5068 5067 5067 5066 5065 5065 5065 5065
5281 5275 5269 5263 5259 5256 5249 5239 5227 5224 5215 5207 5201 5187 5173 5160 5147 5134 5123 5114 5107 5101 5096 5092 5088 5084 5081 5079 5077 5074 5072 5070 5068 5064 5062 5060 5059 5057 5056 5055 5054 5054 5053 5053
5278 5273 5267 5261 5255 5247 5237 5226 5213 5202 5194 5182 5176 5172 5160 5147 5135 5124 5114 5105 5099 5093 5087 5084 5081 5077 5074 5070 5068 5066 5064 5062 5059 5056 5054 5052 5050 5048 5047 5045 5044 5044 5043 5043